Wind_Speed
14 13 12 11 10 8 6 4 2 3 5 7 10 11 14 16 18 20 22 23 24 24 24 24 25 25 26 28 28 28 29 29 28 27 26 25 24 24
14 13 12 12 11 9 7 6 5 4 5 7 9 11 12 15 17 20 21 23 24 25 24 25 25 25 26 28 29 29 29 30 29 29 28 28 27 27
14 14 13 12 12 11 10 9 8 7 7 8 9 11 13 14 17 19 21 23 25 26 26 26 27 27 27 28 29 30 30 30 30 30 29 29 29 29
15 14 14 14 13 12 11 10 10 10 9 9 10 12 13 14 16 18 21 23 25 26 27 27 28 28 29 30 30 31 32 31 31 31 30 30 30 30
16 16 15 15 15 14 14 13 12 12 12 12 12 13 14 15 17 18 20 23 24 26 28 28 29 30 30 30 31 32 32 32 32 32 32 32 32 32
17 17 17 17 16 16 16 15 15 14 14 14 14 15 16 17 18 19 20 22 25 26 28 28 30 30 31 32 32 32 33 33 34 34 33 33 33 33
19 19 19 19 18 18 18 18 18 17 17 17 18 18 18 19 20 21 22 23 25 26 27 28 30 31 32 32 33 33 33 33 34 35 35 35 35 34
21 21 21 22 22 21 21 21 21 21 20 20 21 20 20 21 22 23 24 25 26 28 29 29 30 30 31 32 32 33 34 35 35 35 35 35 36 36
24 24 25 25 25 25 25 24 24 24 23 23 23 24 24 24 24 25 26 26 27 29 31 31 32 33 33 33 34 34 34 35 35 36 36 36 36 37
28 28 28 29 29 29 29 28 27 27 27 27 27 28 28 27 28 28 29 29 30 31 32 33 34 34 34 35 35 36 36 36 37 37 37 38 38 39
32 32 32 33 33 33 33 31 31 31 30 30 31 31 32 32 32 32 32 33 33 34 35 35 35 36 36 36 37 38 38 38 38 38 39 39 39 40
35 36 36 37 37 36 36 34 33 33 34 33 34 34 35 35 35 35 36 36 36 36 37 38 38 39 39 39 39 39 39 40 40 41 42 41 41 41
38 38 39 39 39 38 37 36 36 36 37 37 36 37 38 38 38 38 39 39 39 39 40 41 42 42 42 42 42 42 42 42 42 42 43 43 43 43
40 41 41 41 41 40 40 39 39 39 39 39 40 40 40 41 41 42 42 43 43 43 43 44 44 45 45 45 45 45 45 45 45 44 45 45 45 44
42 42 43 43 43 43 43 43 43 43 42 42 43 43 44 45 45 45 46 47 47 47 47 47 48 48 48 48 48 48 48 48 48 48 48 47 47 46
43 44 44 45 45 46 45 45 45 45 45 45 46 46 47 48 49 49 49 50 50 50 50 51 52 51 51 51 51 51 51 51 51 51 50 50 49 48
45 46 47 47 48 48 47 47 48 48 48 49 50 49 50 52 53 53 53 53 54 53 53 53 53 53 53 53 53 53 53 52 52 52 52 51 50 50
48 49 49 50 50 50 50 51 51 51 52 53 53 53 54 54 55 56 55 56 56 56 56 56 55 55 55 55 55 54 54 53 53 53 53 53 52 51
51 52 53 53 54 54 54 54 55 55 56 56 56 57 57 57 57 58 57 57 57 57 56 56 56 55 56 56 54 55 54 54 54 54 54 54 53 52
54 55 56 57 57 58 58 58 59 59 59 58 58 59 59 58 58 59 58 58 57 57 56 55 55 55 56 56 55 54 54 53 53 53 53 53 53 53
57 58 59 61 61 61 61 62 62 61 60 60 60 60 60 59 58 58 58 57 56 55 54 53 54 54 54 55 55 54 53 52 52 52 52 53 53 52
60 61 62 63 64 64 64 64 63 62 61 61 61 60 59 58 57 56 55 54 53 53 52 51 52 53 53 52 52 52 51 51 50 50 51 52 52 51
63 64 65 66 66 66 65 64 63 62 61 60 59 58 57 56 55 54 53 52 51 51 50 50 50 52 52 51 51 51 50 50 49 48 49 49 49 48
Wind_Direction
22 21 21 19 17 15 11 1 323 266 245 236 231 231 230 230 228 225 226 225 225 227 229 231 231 232 232 230 228 227 229 231 232 232 233 233 233 234
15 15 12 10 7 0 351 344 333 301 272 253 242 240 238 236 233 231 229 227 228 229 230 232 234 235 233 232 230 231 232 233 234 235 234 236 236 237
6 5 3 0 358 355 348 339 332 321 299 275 260 254 248 243 240 237 235 232 231 231 233 235 236 237 235 235 235 235 236 236 237 236 236 237 238 239
358 356 352 348 345 344 340 333 325 319 310 293 278 267 257 251 249 245 242 238 235 234 236 238 239 239 239 239 238 238 239 238 238 237 239 240 241 241
349 347 343 339 335 332 330 325 318 312 306 299 287 277 269 259 256 253 249 245 240 238 239 241 241 241 241 241 241 240 240 239 240 239 240 241 242 242
342 341 339 334 330 325 322 318 313 307 300 296 291 282 275 268 262 259 256 252 249 245 244 243 243 243 243 242 242 241 241 241 241 241 242 243 243 244
335 334 333 330 325 320 316 312 307 303 298 294 291 286 279 273 267 265 263 259 256 252 250 247 247 247 244 244 244 243 242 242 242 243 243 245 244 245
328 327 326 325 322 317 312 306 302 298 295 292 289 287 284 279 273 269 266 264 262 258 255 251 251 250 249 247 247 245 245 245 245 244 245 245 246 246
322 322 321 320 318 315 308 302 297 294 291 289 287 285 283 280 277 273 270 268 266 262 258 255 253 251 250 250 249 247 247 247 247 247 247 248 248 247
316 316 315 315 313 311 307 301 295 292 289 287 285 284 283 281 279 276 274 271 269 266 261 257 255 254 252 251 250 249 249 249 249 249 249 249 249 249
311 311 311 310 309 308 305 300 295 290 288 286 284 283 282 282 280 278 276 273 270 267 265 261 257 255 254 254 252 251 250 250 250 250 250 250 251 251
309 309 308 308 307 305 303 300 295 290 287 286 284 284 282 281 278 277 276 275 272 269 266 264 260 256 256 255 254 254 253 251 251 251 251 251 252 253
306 307 307 307 305 303 302 299 296 290 286 284 283 283 282 280 278 278 276 275 273 270 268 265 262 259 258 256 254 254 254 253 253 252 252 252 252 253
304 306 306 307 305 303 301 298 295 291 287 284 282 282 281 280 278 278 278 277 275 272 269 268 265 262 260 258 256 254 254 254 254 253 253 253 252 253
303 304 305 305 304 303 301 298 295 290 287 284 282 282 282 280 277 277 276 276 275 273 271 270 267 264 261 259 258 256 254 254 254 254 254 253 251 252
302 302 303 304 304 303 301 299 296 291 288 285 283 283 282 281 279 277 276 275 274 272 271 269 268 265 263 261 259 258 255 254 254 254 253 253 252 252
301 301 302 302 302 303 302 300 297 293 290 287 284 283 283 282 280 277 276 275 274 272 270 268 266 265 263 260 259 258 256 254 253 253 253 253 252 252
301 301 302 301 301 301 301 300 297 295 292 290 287 285 284 282 281 279 277 276 275 272 270 267 264 263 262 260 260 259 256 255 254 253 251 251 251 252
301 301 301 301 301 301 300 299 297 295 293 291 289 287 285 284 282 280 278 277 275 273 270 266 262 261 261 260 258 257 256 255 254 253 251 251 251 251
300 301 301 301 301 300 300 299 298 296 294 292 290 287 286 285 283 280 278 277 275 272 269 265 261 259 259 259 257 255 254 254 253 252 251 251 251 250
300 300 301 301 300 299 299 299 298 297 294 293 291 288 286 284 283 280 278 276 274 270 267 263 260 257 257 256 256 255 253 252 252 251 250 249 249 249
300 300 301 301 301 300 298 299 299 297 295 293 291 289 286 284 282 280 276 274 272 269 266 262 259 256 255 255 254 253 251 249 249 249 249 248 248 247
300 300 300 300 301 300 299 298 298 297 295 292 291 289 286 283 281 279 275 272 270 267 264 261 257 255 253 253 252 250 249 248 246 246 246 246 246 245
Height
5832 5831 5829 5828 5827 5827 5826 5826 5827 5827 5828 5828 5830 5831 5832 5834 5836 5838 5841 5844 5846 5849 5852 5854 5856 5859 5861 5864 5867 5870 5872 5875 5878 5880 5883 5885 5887 5889
5834 5832 5830 5829 5828 5827 5826 5826 5826 5826 5826 5827 5828 5829 5830 5831 5833 5835 5837 5839 5842 5844 5847 5849 5851 5854 5856 5859 5861 5864 5867 5869 5872 5875 5877 5880 5882 5884
5834 5832 5831 5829 5828 5827 5826 5825 5825 5825 5825 5825 5826 5826 5827 5828 5830 5831 5833 5835 5837 5839 5842 5844 5846 5848 5851 5853 5856 5858 5861 5863 5866 5868 5871 5873 5875 5878
5834 5832 5830 5829 5827 5826 5825 5824 5824 5823 5823 5823 5823 5824 5824 5825 5826 5827 5828 5830 5832 5834 5836 5838 5840 5842 5845 5847 5849 5852 5854 5857 5859 5862 5864 5867 5869 5871
5833 5831 5829 5827 5826 5824 5823 5822 5821 5821 5820 5820 5820 5820 5820 5821 5822 5823 5824 5825 5826 5828 5830 5832 5834 5836 5838 5840 5842 5845 5847 5850 5852 5855 5857 5859 5862 5864
5831 5829 5827 5825 5823 5822 5820 5819 5818 5817 5817 5817 5816 5816 5816 5816 5817 5818 5818 5819 5820 5822 5823 5825 5827 5829 5831 5833 5835 5838 5840 5842 5845 5847 5850 5852 5854 5856
5829 5826 5824 5822 5820 5818 5816 5815 5814 5813 5812 5812 5811 5811 5811 5811 5811 5812 5812 5813 5814 5815 5816 5818 5819 5821 5823 5825 5827 5830 5832 5834 5837 5839 5842 5844 5846 5848
5825 5822 5820 5818 5815 5813 5811 5809 5808 5807 5807 5806 5806 5805 5805 5805 5805 5805 5805 5806 5807 5808 5809 5810 5812 5813 5815 5817 5819 5821 5824 5826 5828 5830 5833 5835 5837 5839
5820 5817 5815 5812 5809 5807 5804 5802 5800 5799 5799 5799 5799 5798 5798 5797 5797 5797 5797 5798 5799 5799 5800 5801 5803 5804 5806 5808 5810 5812 5814 5816 5819 5821 5823 5826 5828 5830
5814 5811 5808 5805 5801 5798 5796 5793 5791 5790 5790 5789 5789 5789 5789 5788 5788 5788 5788 5789 5790 5790 5790 5792 5793 5795 5797 5798 5800 5802 5804 5807 5809 5811 5813 5816 5818 5820
5806 5802 5799 5795 5792 5789 5785 5783 5781 5780 5779 5779 5779 5778 5778 5778 5778 5778 5778 5778 5779 5780 5780 5781 5783 5784 5786 5788 5790 5791 5794 5796 5798 5801 5803 5805 5807 5809
5797 5793 5789 5785 5781 5777 5774 5772 5770 5769 5768 5768 5767 5767 5766 5766 5766 5766 5766 5766 5767 5768 5769 5769 5770 5772 5775 5777 5778 5780 5782 5784 5787 5789 5792 5794 5796 5798
5788 5784 5779 5775 5770 5766 5763 5760 5758 5757 5756 5756 5755 5755 5754 5753 5753 5753 5753 5754 5754 5755 5756 5756 5758 5759 5761 5764 5766 5768 5770 5772 5774 5777 5779 5782 5784 5787
5777 5773 5769 5764 5759 5755 5751 5748 5746 5744 5743 5742 5742 5742 5741 5741 5740 5740 5740 5739 5740 5741 5742 5742 5744 5745 5747 5750 5753 5755 5756 5759 5761 5764 5766 5769 5771 5774
5766 5762 5757 5753 5748 5743 5739 5735 5732 5730 5729 5728 5728 5727 5727 5726 5726 5726 5725 5725 5725 5726 5726 5727 5728 5730 5731 5734 5737 5740 5742 5745 5747 5750 5752 5755 5758 5761
5755 5751 5746 5741 5736 5731 5727 5722 5719 5717 5715 5714 5713 5713 5712 5711 5710 5709 5709 5709 5709 5710 5710 5710 5711 5712 5715 5718 5720 5723 5726 5729 5732 5734 5737 5740 5743 5747
5744 5740 5735 5730 5725 5720 5714 5710 5706 5703 5701 5699 5697 5696 5695 5694 5692 5691 5691 5690 5691 5692 5693 5692 5692 5694 5697 5700 5703 5706 5709 5712 5716 5718 5721 5724 5728 5731
5732 5727 5722 5717 5712 5707 5702 5698 5693 5690 5686 5683 5681 5678 5677 5675 5674 5672 5671 5671 5671 5672 5672 5673 5674 5675 5678 5681 5685 5688 5691 5695 5698 5701 5704 5708 5712 5716
5718 5714 5709 5703 5698 5693 5688 5683 5679 5674 5669 5666 5663 5660 5657 5655 5654 5652 5651 5650 5650 5650 5651 5652 5653 5655 5658 5663 5668 5669 5672 5676 5679 5683 5687 5691 5696 5700
5704 5699 5694 5688 5683 5677 5672 5667 5662 5657 5652 5647 5643 5640 5637 5635 5633 5631 5630 5629 5629 5629 5630 5632 5634 5636 5638 5643 5648 5652 5654 5657 5661 5665 5670 5673 5678 5682
5688 5683 5677 5672 5666 5660 5654 5649 5643 5638 5633 5628 5624 5620 5617 5614 5612 5611 5609 5608 5608 5608 5610 5613 5614 5616 5618 5622 5627 5633 5637 5640 5643 5647 5652 5656 5661 5666
5671 5665 5660 5654 5648 5642 5636 5630 5624 5619 5613 5609 5604 5600 5596 5594 5592 5590 5589 5589 5588 5589 5590 5593 5595 5597 5600 5603 5608 5614 5619 5624 5627 5630 5635 5640 5644 5650
5653 5647 5641 5635 5628 5622 5616 5610 5604 5599 5593 5588 5584 5580 5577 5574 5573 5571 5570 5570 5570 5571 5572 5574 5576 5579 5582 5586 5590 5596 5601 5606 5610 5614 5619 5624 5628 5634